This demonstration page uses our WeatherBlox Daily Observations layout. Learn more.

Left ArrowRight Arrow

44.89941, -97.11507

Hourly Observations for February 8, 2021

Temp ( °F °C ) Dew Point ( °F °C ) Humidity (%) Winds ( mph kmh ) Pressure ( in mb ) Visibility ( mi km ) Precip ( " mm )
12:53 am 00:53 Clear -12 -24.4 -17 -27.2 78 78 Calm 30.37 1028 10 16 0.00 0.00
1:53 am 01:53 Clear -13 -25 -17 -27.2 82 82 Calm 30.38 1029 10 16 0.00 0.00
2:53 am 02:53 Clear -17 -27.2 -21 -29.4 82 82 Calm 30.38 1029 10 16 0.00 0.00
3:53 am 03:53 Clear -14 -25.6 -18 -27.8 82 82 Calm 30.37 1028 10 16 0.00 0.00
4:53 am 04:53 Clear -18 -27.8 -22 -30 81 81 Calm 30.37 1028 10 16 0.00 0.00
5:53 am 05:53 Clear -18 -27.8 -21 -29.4 86 86 Calm 30.38 1029 10 16 0.00 0.00
6:53 am 06:53 Clear -19 -28.3 -23 -30.6 81 81 Calm 30.37 1029 10 16 0.00 0.00
7:53 am 07:53 Mostly Cloudy -17 -27.2 -21 -29.4 82 82 S 3 6 30.39 1029 10 16 0.00 0.00
8:53 am 08:53 Cloudy with Mist and Fog -14 -25.6 -17 -27.2 86 86 Calm 30.40 1029 3 5 0.00 0.00
9:00 am 09:00 Cloudy with Mist and Fog -13 -25 -16 -26.7 86 86 Calm 30.50 1033 3 4 0.00 0.00
9:04 am 09:04 Cloudy with Mist and Fog -13 -25 -15 -26.1 91 91 Calm 30.50 1033 4 6 0.00 0.00
9:20 am 09:20 Partly Cloudy with Mist and Fog -12 -24.4 -15 -26.1 86 86 Calm 30.50 1033 3 5 0.00 0.00
9:53 am 09:53 Mostly Cloudy -11 -23.9 -14 -25.6 86 86 Calm 30.40 1029 7 11 0.00 0.00
10:53 am 10:53 Sunny -6 -21.1 -9 -22.8 86 86 Calm 30.39 1029 10 16 0.00 0.00
11:53 am 11:53 Sunny -4 -20 -10 -23.3 75 75 N 3 6 30.39 1029 10 16 0.00 0.00
12:53 pm 12:53 Sunny -2 -18.9 -10 -23.3 68 68 N 3 6 30.38 1029 10 16 0.00 0.00
1:53 pm 13:53 Sunny -2 -18.9 -10 -23.3 68 68 SSW 5 7 30.37 1029 10 16 0.00 0.00
2:53 pm 14:53 Sunny -2 -18.9 -11 -23.9 65 65 SW 7 11 30.37 1029 10 16 0.00 0.00
3:53 pm 15:53 Sunny -1 -18.3 -10 -23.3 65 65 S 7 11 30.37 1028 10 16 0.00 0.00
4:53 pm 16:53 Sunny -2 -18.9 -10 -23.3 68 68 S 8 13 30.37 1028 10 16 0.00 0.00
5:53 pm 17:53 Clear -5 -20.6 -12 -24.4 72 72 SSW 6 9 30.37 1028 10 16 0.00 0.00
6:53 pm 18:53 Clear -8 -22.2 -13 -25 78 78 SSW 6 9 30.38 1029 10 16 0.00 0.00
7:53 pm 19:53 Clear -10 -23.3 -15 -26.1 78 78 SSW 8 13 30.39 1029 10 16 0.00 0.00
8:53 pm 20:53 Clear -9 -22.8 -14 -25.6 78 78 SSW 7 11 30.39 1029 10 16 0.00 0.00
9:53 pm 21:53 Cloudy -6 -21.1 -11 -23.9 78 78 SSW 6 9 30.38 1029 10 16 0.00 0.00
10:53 pm 22:53 Cloudy -1 -18.3 -7 -21.7 75 75 SW 9 15 30.38 1029 10 16 0.00 0.00
11:53 pm 23:53 Cloudy with Light Snow 0 -17.8 -5 -20.6 79 79 SW 10 17 30.37 1029 2 3 0.00 0.00

Powered by AerisWeather